Weather History for KTQE - September, 2013

Change the Weather History Date:

Monday, September 9, 2013

  Actual Average Record
Temperature  
Mean Temperature 83 °F -  
Max Temperature 96 °F 80 °F 100 °F (1955)
Min Temperature 70 °F 54 °F 39 °F (2008)
Cooling Degree Days 18    
Growing Degree Days 33 (Base 50)    
Moisture  
Dew Point 65 °F    
Average Humidity 63    
Maximum Humidity 93    
Minimum Humidity 33    
Precipitation  
Precipitation 0.00 in - - ()
Sea Level Pressure  
Sea Level Pressure 29.74 in    
Wind  
Wind Speed 7 mph (South)    
Max Wind Speed 16 mph    
Max Gust Speed 24 mph    
Visibility 9 miles    
Events      
Averages and records for this station are not official NWS values.
T = Trace of Precipitation, MM = Missing Value Source: NWS Daily Summary

Daily Weather History Graph

Daily Weather History Graph

Search for Another Location

Airport or City:

Trip Planner

Search our weather history database for the weather conditions in past years. The results will help you decide how hot, cold, wet, or windy it might be!

Date:

Astronomy

Sep. 09, 2013 Rise Set
Actual Time 6:59 AM CDT 7:44 PM CDT
Civil Twilight 6:30 AM CDT 8:12 PM CDT
Nautical Twilight 5:57 AM CDT 8:45 PM CDT
Astronomical Twilight 5:22 AM CDT 9:19 PM CDT
Moon 11:26 AM CDT (9/9) 9:56 PM CDT (9/9)
Length of Visible Light 13h 41m
Length of Day
12h 44m
Waxing Crescent, 19% of the Moon is Illuminated
Sep 9
Waxing Crescent
Sep 12
First Quarter
Sep 19
Full
Sep 26
Last Quarter
Oct 4
New

Hourly Weather History & Observations

Time (CDT) Temp. Heat Index Dew Point Humidity Pressure Visibility Wind Dir Wind Speed Gust Speed Precip Events Conditions
12:54 AM 72.0 °F - 70.0 °F 93% 29.75 in 5.0 mi SE 3.5 mph - N/A   Clear
1:54 AM 72.0 °F - 70.0 °F 93% 29.74 in 5.0 mi SSE 4.6 mph - N/A   Clear
2:54 AM 70.0 °F - 68.0 °F 93% 29.73 in 4.0 mi SSE 5.8 mph - N/A   Clear
3:54 AM 70.0 °F - 66.9 °F 90% 29.73 in 6.0 mi SSE 5.8 mph - N/A   Clear
4:54 AM 70.0 °F - 66.0 °F 87% 29.73 in 10.0 mi South 5.8 mph - N/A   Clear
5:54 AM 70.0 °F - 66.0 °F 87% 29.73 in 10.0 mi South 6.9 mph - N/A   Clear
6:54 AM 71.1 °F - 64.9 °F 81% 29.75 in 10.0 mi South 8.1 mph - N/A   Clear
7:54 AM 72.0 °F - 66.0 °F 81% 29.75 in 10.0 mi South 8.1 mph - N/A   Clear
8:54 AM 75.9 °F - 66.0 °F 71% 29.76 in 10.0 mi South 9.2 mph - N/A   Clear
9:54 AM 81.0 °F 83.3 °F 66.9 °F 62% 29.76 in 10.0 mi South 8.1 mph - N/A   Clear
10:54 AM 86.0 °F 88.8 °F 66.9 °F 53% 29.75 in 10.0 mi South 10.4 mph - N/A   Clear
11:54 AM 90.0 °F 92.4 °F 66.0 °F 45% 29.74 in 10.0 mi SSW 10.4 mph 17.3 mph N/A   Clear
12:54 PM 93.0 °F 96.4 °F 66.9 °F 42% 29.74 in 10.0 mi SSW 9.2 mph - N/A   Clear
1:54 PM 95.0 °F 99.0 °F 66.9 °F 40% 29.73 in 10.0 mi South 10.4 mph - N/A   Clear
2:54 PM 96.1 °F 98.3 °F 64.0 °F 35% 29.72 in 10.0 mi South 16.1 mph 23.0 mph N/A   Clear
3:54 PM 96.1 °F 97.3 °F 63.0 °F 33% 29.71 in 10.0 mi SSW 16.1 mph 24.2 mph N/A   Clear
4:54 PM 95.0 °F 97.0 °F 64.0 °F 36% 29.71 in 10.0 mi South 13.8 mph 20.7 mph N/A   Clear
5:54 PM 93.0 °F 94.6 °F 64.0 °F 38% 29.71 in 10.0 mi South 11.5 mph 18.4 mph N/A   Clear
6:54 PM 88.0 °F 89.3 °F 64.0 °F 45% 29.72 in 10.0 mi South 9.2 mph - N/A   Clear
7:54 PM 81.0 °F 81.9 °F 62.1 °F 52% 29.74 in 10.0 mi South 6.9 mph - N/A   Clear
8:54 PM 75.9 °F - 63.0 °F 64% 29.76 in 10.0 mi SSE 9.2 mph - N/A   Clear
9:54 PM 75.0 °F - 62.1 °F 64% 29.78 in 10.0 mi South 6.9 mph - N/A   Clear
10:54 PM 73.9 °F - 61.0 °F 64% 29.78 in 10.0 mi South 6.9 mph - N/A   Clear
11:54 PM 73.0 °F - 61.0 °F 66% 29.80 in 10.0 mi South 8.1 mph - N/A   Clear